DMC3-FM2

Last updated on Thu Oct 30 2025 00:02:38 GMT+0000 (Coordinated Universal Time)

1 40716U 15032B 25302.53396161 .00001095 00000+0 13345-3 0 9998 2 40716 97.6799 172.7413 0007675 96.5587 263.6503 14.85305416555666
UTC large
Height (km)
Speed (km/s)
/
Latitude / Longitude
Inclination (degrees)
Orbital Period (minutes)
Azimuth
Elevation
Range (km)
Doppler Factor

Next 0 passes for location: London (51.5072 / 0.1276)

Sorry there are no passes over London.